Weather History for KMZZ - November, 2013

Change the Weather History Date:

Monday, November 18, 2013

  Actual Average (KMIE) Record (KMIE)
Temperature  
Mean Temperature 38 °F 42 °F  
Max Temperature 78 °F 50 °F 72 °F (1971)
Min Temperature 32 °F 33 °F 9 °F (2014)
Degree Days  
Heating Degree Days 26 23  
Month to date heating degree days 354  
Since 1 July heating degree days 818  
Cooling Degree Days 0 0  
Month to date cooling degree days 0  
Year to date cooling degree days 955  
Moisture  
Dew Point 32 °F    
Average Humidity 72    
Maximum Humidity 84    
Minimum Humidity 59    
Precipitation  
Precipitation 0.12 in 0.13 in 0.86 in (1969)
Month to date precipitation 2.04  
Year to date precipitation 35.83  
Sea Level Pressure  
Sea Level Pressure 29.98 in    
Wind  
Wind Speed 20 mph (WNW)    
Max Wind Speed 31 mph    
Max Gust Speed 36 mph    
Visibility 10 miles    
Events      
T = Trace of Precipitation, MM = Missing Value Source: NWS Daily Summary

Daily Weather History Graph

Daily Weather History Graph

Search for Another Location

Airport or City:

Trip Planner

Search our weather history database for the weather conditions in past years. The results will help you decide how hot, cold, wet, or windy it might be!

Date:

Astronomy

Nov. 18, 2013 Rise Set
Actual Time 7:32 AM EST 5:22 PM EST
Civil Twilight 7:03 AM EST 5:52 PM EST
Nautical Twilight 6:30 AM EST 6:25 PM EST
Astronomical Twilight 5:57 AM EST 6:57 PM EST
Moon 6:24 PM EST (11/18) 8:20 AM EST (11/18)
Length of Visible Light 10h 48m
Length of Day
9h 49m
Full, 99% of the Moon is Illuminated
Nov 18
Full
Nov 25
Last Quarter
Dec 2
New
Dec 9
First Quarter
Dec 17
Full

Hourly Weather History & Observations

Time (EST) Temp. Windchill Dew Point Humidity Pressure Visibility Wind Dir Wind Speed Gust Speed Precip Events Conditions
12:15 AM 45.7 °F 37.1 °F 38.1 °F 75% 29.76 in 10.0 mi West 24.2 mph 34.5 mph 0.01 in   Overcast
12:35 AM 45.1 °F 36.4 °F 37.6 °F 75% 29.78 in 10.0 mi West 24.2 mph 35.7 mph 0.02 in   Overcast
12:55 AM 44.8 °F 36.4 °F 37.8 °F 76% 29.79 in 10.0 mi West 21.9 mph 29.9 mph 0.03 in   Mostly Cloudy
1:15 AM 44.1 °F 35.0 °F 37.2 °F 77% 29.80 in 10.0 mi West 24.2 mph 31.1 mph 0.01 in   Mostly Cloudy
1:35 AM 43.2 °F 33.8 °F 36.5 °F 77% 29.80 in 10.0 mi West 24.2 mph 29.9 mph 0.01 in   Scattered Clouds
1:55 AM 42.4 °F 34.1 °F 36.3 °F 79% 29.81 in 10.0 mi West 18.4 mph 24.2 mph 0.02 in   Clear
2:15 AM 42.4 °F 33.8 °F 36.1 °F 78% 29.82 in 10.0 mi West 19.6 mph 24.2 mph 0.01 in   Clear
2:35 AM 42.3 °F 33.3 °F 35.2 °F 76% 29.83 in 10.0 mi West 20.7 mph 25.3 mph 0.01 in   Clear
2:55 AM 42.1 °F 33.6 °F 34.9 °F 76% 29.83 in 10.0 mi West 18.4 mph 25.3 mph 0.02 in   Clear
3:15 AM 41.9 °F 33.1 °F 34.3 °F 75% 29.84 in 10.0 mi West 19.6 mph - N/A   Clear
3:35 AM 41.7 °F 33.1 °F 34.2 °F 75% 29.84 in 10.0 mi West 18.4 mph 24.2 mph 0.01 in   Clear
3:55 AM 41.4 °F 33.3 °F 34.0 °F 75% 29.85 in 10.0 mi West 16.1 mph - 0.01 in   Clear
4:15 AM 41.0 °F 32.8 °F 34.3 °F 77% 29.85 in 10.0 mi West 16.1 mph - 0.01 in   Clear
4:35 AM 40.8 °F 32.3 °F 34.3 °F 78% 29.86 in 10.0 mi West 17.3 mph 24.2 mph 0.01 in   Clear
4:55 AM 40.6 °F 33.0 °F 34.5 °F 79% 29.86 in 10.0 mi West 13.8 mph - 0.01 in   Clear
5:15 AM 40.1 °F 32.0 °F 34.7 °F 81% 29.87 in 10.0 mi WSW 15.0 mph - 0.01 in   Clear
5:35 AM 39.9 °F 31.1 °F 34.7 °F 82% 29.87 in 10.0 mi WSW 17.3 mph 20.7 mph 0.01 in   Clear
5:55 AM 39.6 °F 31.0 °F 35.1 °F 84% 29.87 in 10.0 mi West 16.1 mph - 0.01 in   Clear
6:15 AM 39.6 °F 31.0 °F 35.1 °F 84% 29.87 in 10.0 mi West 16.1 mph - N/A   Clear
6:35 AM 39.4 °F 31.1 °F 34.9 °F 84% 29.87 in 10.0 mi West 15.0 mph - 0.01 in   Clear
6:55 AM 39.4 °F 30.7 °F 34.5 °F 83% 29.88 in 10.0 mi West 16.1 mph 23.0 mph 0.01 in   Clear
7:15 AM 39.4 °F 30.1 °F 33.6 °F 80% 29.88 in 10.0 mi West 18.4 mph 26.5 mph N/A   Clear
7:35 AM 39.2 °F 29.8 °F 32.9 °F 78% 29.89 in 10.0 mi West 18.4 mph 25.3 mph N/A   Clear
7:55 AM 39.0 °F 29.9 °F 32.0 °F 76% 29.90 in 10.0 mi West 17.3 mph 25.3 mph N/A   Clear
8:15 AM 39.2 °F 29.3 °F 32.0 °F 75% 29.90 in 10.0 mi West 20.7 mph 28.8 mph N/A   Clear
8:35 AM 39.6 °F 29.5 °F 32.2 °F 75% 29.91 in 10.0 mi West 21.9 mph 27.6 mph 0.01 in   Clear
8:55 AM 39.9 °F 29.7 °F 32.4 °F 74% 29.92 in 10.0 mi West 23.0 mph 28.8 mph 0.01 in   Clear
9:15 AM 40.5 °F 29.7 °F 32.5 °F 73% 29.93 in 10.0 mi West 26.5 mph 34.5 mph N/A   Clear
9:35 AM 40.8 °F 30.0 °F 32.9 °F 73% 29.94 in 10.0 mi West 27.6 mph 35.7 mph N/A   Clear
9:55 AM 41.0 °F 30.0 °F 32.9 °F 73% 29.94 in 10.0 mi West 28.8 mph 35.7 mph N/A   Clear
10:15 AM 41.4 °F 31.2 °F 32.5 °F 71% 29.95 in 10.0 mi WNW 25.3 mph 33.4 mph N/A   Clear
10:35 AM 41.9 °F 31.9 °F 32.9 °F 70% 29.96 in 10.0 mi West 25.3 mph 34.5 mph N/A   Clear
10:55 AM 42.3 °F 31.9 °F 33.4 °F 71% 29.96 in 10.0 mi West 27.6 mph 33.4 mph N/A   Clear
11:15 AM 42.8 °F 32.9 °F 33.6 °F 70% 29.97 in 10.0 mi West 26.5 mph 32.2 mph N/A   Scattered Clouds
11:35 AM 43.3 °F 32.8 °F 33.8 °F 69% 29.97 in 10.0 mi West 31.1 mph 34.5 mph N/A   Scattered Clouds
11:55 AM 43.7 °F 34.3 °F 34.2 °F 69% 29.97 in 10.0 mi WNW 25.3 mph 34.5 mph N/A   Mostly Cloudy
12:15 PM 43.0 °F 33.5 °F 33.1 °F 68% 29.98 in 10.0 mi West 24.2 mph 28.8 mph N/A   Mostly Cloudy
12:35 PM 43.2 °F 33.0 °F 32.9 °F 67% 29.98 in 10.0 mi WNW 28.8 mph 35.7 mph N/A   Mostly Cloudy
12:55 PM 43.0 °F 32.9 °F 32.9 °F 68% 29.99 in 10.0 mi WNW 27.6 mph 35.7 mph N/A   Mostly Cloudy
1:15 PM 44.1 °F 34.2 °F 32.9 °F 65% 29.98 in 10.0 mi West 28.8 mph 32.2 mph N/A   Mostly Cloudy
1:35 PM 43.2 °F 33.2 °F 32.4 °F 66% 29.99 in 10.0 mi West 27.6 mph 35.7 mph N/A   Scattered Clouds
1:55 PM 43.9 °F 34.7 °F 32.4 °F 64% 29.99 in 10.0 mi West 24.2 mph 35.7 mph N/A   Scattered Clouds
2:15 PM 44.6 °F 35.1 °F 32.0 °F 61% 30.00 in 10.0 mi WNW 27.6 mph 34.5 mph N/A   Scattered Clouds
2:35 PM 43.7 °F 34.7 °F 31.8 °F 63% 30.00 in 10.0 mi WNW 23.0 mph 27.6 mph N/A   Mostly Cloudy
2:55 PM 44.4 °F 35.7 °F 32.0 °F 62% 30.01 in 10.0 mi WNW 23.0 mph 29.9 mph N/A   Scattered Clouds
3:15 PM 44.6 °F 35.9 °F 30.9 °F 59% 30.02 in 10.0 mi WNW 23.0 mph 31.1 mph N/A   Scattered Clouds
3:35 PM 43.9 °F 34.5 °F 30.2 °F 59% 30.03 in 10.0 mi WNW 25.3 mph 31.1 mph N/A   Mostly Cloudy
3:55 PM 43.9 °F 35.0 °F 30.2 °F 59% 30.04 in 10.0 mi WNW 23.0 mph 29.9 mph N/A   Mostly Cloudy
4:15 PM 43.7 °F 35.7 °F 30.6 °F 60% 30.05 in 10.0 mi WNW 18.4 mph 28.8 mph N/A   Overcast
4:35 PM 43.3 °F 35.0 °F 30.6 °F 61% 30.06 in 10.0 mi WNW 19.6 mph 25.3 mph N/A   Overcast
4:55 PM 42.6 °F 34.9 °F 30.2 °F 61% 30.08 in 10.0 mi WNW 16.1 mph - N/A   Overcast
5:15 PM 41.9 °F 33.4 °F 29.7 °F 62% 30.08 in 10.0 mi NW 18.4 mph 25.3 mph N/A   Mostly Cloudy
5:35 PM 41.2 °F 33.0 °F 29.1 °F 62% 30.09 in 10.0 mi NW 16.1 mph 23.0 mph N/A   Overcast
5:55 PM 41.2 °F 34.5 °F 29.1 °F 62% 30.10 in 10.0 mi WNW 11.5 mph - N/A   Overcast
6:15 PM 41.0 °F 32.8 °F 29.1 °F 63% 30.11 in 10.0 mi NW 16.1 mph 21.9 mph N/A   Overcast
6:35 PM 40.1 °F 33.2 °F 28.8 °F 64% 30.12 in 10.0 mi WNW 11.5 mph - N/A   Overcast
6:55 PM 39.2 °F 32.0 °F 28.6 °F 66% 30.13 in 10.0 mi WNW 11.5 mph - N/A   Scattered Clouds
7:15 PM 38.5 °F 31.1 °F 28.4 °F 67% 30.14 in 10.0 mi WNW 11.5 mph - N/A   Clear
7:35 PM 37.6 °F 31.6 °F 28.6 °F 70% 30.14 in 10.0 mi WNW 8.1 mph - N/A   Scattered Clouds
7:55 PM 36.7 °F 30.5 °F 29.3 °F 75% 30.14 in 10.0 mi WNW 8.1 mph - N/A   Mostly Cloudy
8:15 PM 36.7 °F 29.9 °F 29.3 °F 75% 30.15 in 10.0 mi WNW 9.2 mph - N/A   Mostly Cloudy
8:35 PM 36.3 °F 29.5 °F 29.1 °F 75% 30.16 in 10.0 mi WNW 9.2 mph - N/A   Scattered Clouds
8:55 PM 36.1 °F 29.9 °F 28.8 °F 75% 30.16 in 10.0 mi WNW 8.1 mph - N/A   Mostly Cloudy
9:15 PM 36.0 °F 29.0 °F 28.9 °F 76% 30.17 in 10.0 mi WNW 9.2 mph - N/A   Overcast
9:35 PM 35.6 °F 27.1 °F 28.6 °F 76% 30.17 in 10.0 mi WNW 12.7 mph - N/A   Overcast
9:55 PM 34.9 °F 26.6 °F 28.0 °F 76% 30.17 in 10.0 mi WNW 11.5 mph - N/A   Scattered Clouds
10:15 PM 34.2 °F 26.2 °F 27.3 °F 76% 30.18 in 10.0 mi WNW 10.4 mph - N/A   Clear
10:35 PM 33.1 °F 24.9 °F 27.3 °F 79% 30.18 in 10.0 mi WNW 10.4 mph - N/A   Clear
10:55 PM 32.9 °F 25.3 °F 27.1 °F 79% 30.19 in 10.0 mi WNW 9.2 mph - N/A   Clear
11:15 PM 32.5 °F 24.8 °F 27.1 °F 80% 30.19 in 10.0 mi WNW 9.2 mph - N/A   Clear
11:35 PM 32.4 °F 25.3 °F 26.8 °F 80% 30.19 in 10.0 mi WNW 8.1 mph - N/A   Clear
11:55 PM 32.4 °F 25.3 °F 26.6 °F 79% 30.20 in 10.0 mi WNW 8.1 mph - N/A   Clear